Regional Weather Roundup
Issued by NWS Mobile, AL

Home | Current Version | Previous Version | Text Only | Print | Product List | Glossary On
Versions: 1 2 3 4 5 6 7 8 9 10 11 12 13 14 15 16 17 18 19 20 21 22 23 24 25 26 27 28 29 30 31 32 33 34 35 36 37 38 39 40 41 42 43 44 45 46 47 48 49 50
000
ASUS44 KMOB 070716
RWRMOB
REGIONAL WEATHER ROUNDUP
NATIONAL WEATHER SERVICE MOBILE AL
200 AM CDT TUE JUL 07 2015

ALZ061>064-070800-
COASTAL ALABAMA


CITY           SKY/WX    TMP DP  RH WIND       PRES   REMARKS
MOBILE REG APT CLEAR     74  73  97 CALM      30.14R
BROOKLEY FIELD CLEAR     75  73  93 SW3       30.14R
GULF SHORES    SUNNY     72  71  98 CALM      30.12S

$$

ALZ051>060-070800-
INTERIOR SOUTHWEST AND SOUTH CENTRAL ALABAMA


CITY           SKY/WX    TMP DP  RH WIND       PRES   REMARKS
ANDALUSIA/OPP  CLEAR     77  72  84 CALM      30.13R
EVERGREEN      CLEAR     73  71  93 SE3       30.13S
FLORALA        SUNNY     74  71  91 CALM      30.14S
GREENVILLE     FAIR      73  69  87 CALM      30.12S

$$

FLZ001>006-070800-
WESTERN FLORIDA PANHANDLE


CITY           SKY/WX    TMP DP  RH WIND       PRES   REMARKS
CRESTVIEW      CLEAR     72  71  97 CALM      30.13S
DESTIN         CLEAR     81  73  76 CALM      30.11S
DUKE FIELD     FAIR      72  70  92 CALM      30.11S
MARY ESTHER    CLEAR     76  69  80 N1        30.10S
MILTON         SUNNY     74  69  85 NW3       30.13R
PENSACOLA      CLEAR     75  69  81 CALM      30.12R
NAS PENSACOLA  CLEAR     72  69  90 CALM      30.12R
VALPARAISO     NOT AVBL

$$

...MARINE OBSERVATIONS...

STATION/POSITION TIME  SKY/WX   TEMP    WIND        PRES    VSBY
                                AIR SEA DIR/SP/G
                 (UTC)          (F)     (DEG/KT/KT) (MB)    (MI)
PASCAGOULA       0600            83     170/  8/  9 1019.7R
PETIT BOIS ISL   0600            85     180/  7/  8 1020.4R
E DAUPHIN ISLAND 0700            83     200/  4/  6 1019.8R
MIDDLE BAY LIGHT 0600            81     190/  7     1019.0F
USCG MOBILE BAY  0600            80 84  250/  2/  3 1018.8F
STATE DOCKS      0600            80 85              1019.6S
MEAHER PARK      0700            79     110/  3     1019.6R
FORT MORGAN      0600            83     210/  8/  8 1019.4R
12 S ORANGE BCH  0650            84 85  200/  8/ 10 1019.2R
WVE H/P(F/S)=  1/ 5

PENSACOLA BAY    0600            80 84  280/  2/  3 1019.9R
64 S DAUPHIN ISL 0650            84 86  170/ 10/ 12 1020.1R
WVE H/P(F/S)=  2/ 5

67 S FORT MORGAN 0630            83     170/ 12     1020.0R
115 SE PENSACOLA 0650            82 84  190/  4/  6 1020.2R
WVE H/P(F/S)=  2/ 6

MID GULF/42001   0650            84 86  130/ 12/ 16 1018.9R
WVE H/P(F/S)=  3/ 8

EAST GULF/42003  0650            84 85   90/ 10/ 10 1018.5F
WVE H/P(F/S)=  3/ 9


$$

...NEARBY LOCATIONS

CITY           SKY/WX    TMP DP  RH WIND       PRES   REMARKS
GULFPORT       PTCLDY    82  78  88 S7        30.11S
BILOXI         CLEAR     82  79  91 S8        30.11S
PASCAGOULA     CLEAR     75  74  96 CALM      30.12S
HATTIESBURG    CLEAR     78  76  93 S7        30.13R
LAUREL         CLEAR     75  73  94 S6        30.13S
MERIDIAN       CLEAR     73  71  93 S5        30.12R
MERIDIAN NAS   CLEAR     74  71  91 CALM      30.12R
MONTGOMERY     CLEAR     75  72  90 CALM      30.12S
MAXWELL AFB    CLEAR     74  73  97 CALM      30.11S
TROY           CLEAR     73  71  93 CALM      30.13S
FORT RUCKER    PTCLDY    72  70  93 CALM      30.11S
DALEVILLE      CLEAR     73  72  95 N1        30.12R
DOTHAN         CLEAR     74  72  93 NW3       30.16R

$$

...OTHER SURROUNDING LOCATIONS...

CITY           SKY/WX    TMP DP  RH WIND       PRES   REMARKS
BIRMINGHAM     CLEAR     74  71  91 CALM      30.14S
TUSCALOOSA     CLEAR     73  72  96 CALM      30.11S FOG
COLUMBUS GA    CLEAR     73  70  90 CALM      30.12S
PANAMA CITY    NOT AVBL
TALLAHASSEE    CLEAR     75  72  90 CALM      30.11S
BATON ROUGE    PTCLDY    79  75  87 S3        30.11R
NEW ORLEANS    CLOUDY    82  76  81 S5        30.11S
SLIDELL        PTCLDY    79  78  97 CALM      30.11S
JACKSON        PTCLDY    78  74  87 S8        30.10R
MCCOMB         MOCLDY    76  76 100 S3        30.13R

$$

...SURROUNDING MARINE OBSERVATIONS...

STATION/POSITION TIME  SKY/WX   TEMP    WIND        PRES    VSBY
                                AIR SEA DIR/SP/G
                 (UTC)          (F)     (DEG/KT/KT) (MB)    (MI)
WAVELAND         0600            83 83  190/  5/ 12 1019.9R
PASCAGOULA RGN A 0600            83     190/  7/  8 1019.4R
PASCAGOULA PORT  0600               84                N/A
GRAND ISLE       0600            85 87  180/  6/  9 1019.7R
SOUTHWEST PASS   0700            84     170/ 11/ 12 1020.3R
PILOT STATION E  0600            84 82  170/  9/ 12 1020.1R
SHELL BEACH      0600            81 84  170/  3/  4 1019.2R
PANAMA CITY      0600            81 84  170/  2/  3 1019.2F
APALACHICOLA     0600            78 85  320/  1/  2 1019.5F
TYNDALL TOWER C  0700            81     280/  6/  6 1019.7R
S APLCHCLA/42036 0650            83 85   CALM  /  2 1019.5S
WVE H/P(F/S)=  2/10


$$



USA.gov is the U.S. government's official web portal to all federal, state and local government web resources and services.